Location: Kailua
(21.4020°N, 157.7390°W)
Time: 09:41:38
(UTC-10:00)

Daily predictions for brighter satellites

Satellite Brightness Start Highest point End
(mag) Time Altitude Azimuth Time Altitude Azimuth Time Altitude Azimuth
CZ-4C R/B 3.4 19:05:51 10° NNW 19:13:35 76° WSW 19:21:41 10° SSE
METEOR-M 4.4 19:08:43 10° S 19:14:03 75° WSW 19:19:23 10° NNW
SPOT 3 Rocket 4.3 19:09:54 10° S 19:14:59 59° WSW 19:20:03 10° NNW
ASTRO E2 2.7 19:14:37 10° WSW 19:18:37 88° SSE 19:22:37 10° ENE
Meteosat 1 Rocket2 4.1 19:15:02 10° W 19:18:51 44° N 19:24:03 10° ENE
Cosmos 1812 2.7 19:16:38 10° N 19:20:29 89° ENE 19:24:21 10° S
ALOS 2.2 19:17:00 10° SSE 19:21:38 74° ENE 19:26:17 10° N
Cosmos 1975 Rocket 3.1 19:19:15 10° N 19:23:38 64° E 19:27:58 10° SSE
Cosmos 1602 3.6 19:24:53 10° S 19:28:41 67° E 19:32:29 10° NNE
Cosmos 2151 Rocket 3.6 19:25:45 10° S 19:30:04 59° E 19:34:22 10° NNE
Resurs 01 Rocket 3.1 19:27:19 10° ESE 19:30:21 18° ENE 19:33:25 10° NNE
NOAA 12 4.4 19:25:52 10° S 19:31:05 71° WSW 19:36:19 10° NNW
FENGYUN 3A 3.7 19:27:10 10° SSE 19:32:33 89° ENE 19:37:55 10° NNW
Cosmos 1954 Rocket 4.4 19:27:46 10° N 19:32:50 44° ENE 19:37:53 10° SE
Palapa 6 Rocket 3.4 19:29:56 10° W 19:34:24 71° SSW 19:39:04 14° ESE
Cosmos 2227 4.4 19:31:14 10° N 19:36:44 52° ENE 19:42:14 10° SSE
Envisat 4.4 19:40:20 15° ESE 19:42:29 19° ENE 19:45:56 10° NNE
Cosmos 2266 Rocket 4.4 19:37:03 10° SSE 19:42:32 37° E 19:48:00 10° NNE
Lacrosse 5 4.3 19:42:24 10° WSW 19:46:32 25° NW 19:50:40 10° N
FREGAT/IRIS 3.4 19:44:15 10° S 19:47:11 52° W 19:50:08 10° NNW
Cosmos 1536 Rocket 4.3 19:44:09 10° NNE 19:47:59 30° E 19:50:26 18° SE
USA 267 4.4 19:45:36 14° E 19:49:48 26° NE 19:55:01 10° N
DELTA 2 R/B (1) 4.2 19:45:17 10° NW 19:50:37 44° NNE 19:54:10 20° E
Cosmos 1553 Rocket 4.0 19:46:11 10° N 19:52:07 53° E 19:57:59 10° SSE
S3M 4.2 19:46:20 10° N 19:52:25 49° E 19:58:32 10° SSE
Cosmos 2322 Rocket 3.8 19:47:33 10° SW 19:52:48 38° WNW 19:58:04 10° N
Cosmos 2263 Rocket 3.3 19:51:24 10° NNE 19:55:55 24° ENE 19:57:34 21° E
SJ-6B 3.3 19:57:33 10° S 20:01:31 62° W 20:05:35 10° NNW
GOES 2 Rocket 4.2 19:56:26 10° WNW 20:02:42 49° SSW 20:05:45 22° SE
HJ-1C 4.0 20:01:29 10° S 20:04:50 56° W 20:08:11 10° NNW
Cosmos 2237 4.3 19:59:39 10° S 20:05:07 51° ESE 20:10:36 10° NNE
Atlas Centaur 2 3.4 19:56:49 10° WNW 20:05:10 55° NNE 20:10:15 22° E
GPS 2-18 Rocket1 3.2 20:01:39 10° W 20:05:19 56° S 20:06:23 39° SE
SL-16 R/B 4.4 20:01:56 10° SW 20:06:41 28° WNW 20:11:27 10° N
Cosmos 1110 Rocket 3.9 20:06:02 10° SSW 20:11:11 88° E 20:16:22 10° NNE
ATLAS 2AS CENTAUR R/B 4.3 20:09:49 10° SW 20:16:41 41° WNW 20:24:04 10° N
Cosmos 2322 3.7 20:14:35 10° SSW 20:20:13 81° WNW 20:25:53 10° NNE
USA 186 1.8 20:20:59 67° NE 20:20:59 67° NE 20:24:05 10° N
Cosmos 1331 Rocket 4.0 20:16:54 10° SSW 20:22:03 82° WNW 20:27:16 10° NNE
Cosmos 2360 Rocket 2.8 20:18:24 10° SSW 20:23:55 57° WNW 20:29:26 10° N
Resurs 1-3 3.5 20:23:18 36° SSE 20:25:03 86° E 20:29:27 10° N
GPS 2-14 Rocket1 2.4 20:22:14 10° W 20:25:58 74° S 20:25:58 74° S
SeaSat 1 2.7 20:21:36 10° NNE 20:26:29 69° WNW 20:31:22 10° SSW
NOSS 3-4 (A) 3.7 20:22:06 10° S 20:28:01 43° ESE 20:33:55 10° NE
NOSS 3-4 (C) 3.7 20:22:14 10° S 20:28:07 42° ESE 20:34:00 10° NE
Cosmos 1536 4.4 20:28:59 10° SSW 20:32:43 35° W 20:36:27 10° NNW
COSMOS 2428 2.6 20:27:50 10° S 20:33:30 65° ESE 20:39:10 10° NNE
CZ-2D R/B 4.2 20:31:58 24° SSW 20:33:57 45° W 20:37:39 10° NNW
Cosmos 1850 Rocket 3.9 20:29:46 10° NNW 20:35:04 85° ENE 20:36:30 50° SSE
Cosmos 1939 Rocket 4.2 20:39:23 30° NNE 20:39:23 30° NNE 20:41:32 10° N
Meteor 1-23 Rocket 4.1 20:32:35 10° N 20:38:06 61° E 20:38:36 58° ESE
Okean 1 Rocket 3.8 20:34:58 10° SSW 20:39:10 51° W 20:43:24 10° N
Milstar 3 4.4 20:18:34 10° WNW 20:40:17 68° SSW 20:46:26 35° SE
Lacrosse 5 rocket 3.1 20:38:30 10° WNW 20:41:36 23° WSW 20:42:37 21° SW
Spot 2 Rocket 4.1 20:49:30 31° SSW 20:51:39 53° W 20:56:37 10° NNW
Cosmos 2333 4.1 20:46:03 10° SSW 20:51:45 90° WNW 20:57:24 10° NNE
GPS 2-12 Rocket1 4.3 20:48:31 10° W 20:51:40 31° SW 20:51:40 31° SW
Resurs 01 Rocket 3.7 21:04:46 19° SW 21:06:35 24° W 21:10:10 10° NW
Cosmos 1607 3.9 21:00:39 10° NNW 21:06:53 79° NNE 21:06:53 79° NNE
Cosmos 1244 Rocket 4.4 21:07:37 79° SW 21:07:56 83° W 21:14:06 10° N
Intelsat 5-1 Rocket 4.0 20:50:46 10° W 21:15:22 79° N 21:17:45 56° ENE
Envisat 4.5 21:20:32 30° WSW 21:21:10 31° W 21:25:38 10° NW
Skynet4D Del rocket 4.5 21:24:50 10° WNW 21:30:21 56° W 21:30:21 56° W
USA 267 3.6 21:32:59 59° WSW 21:32:59 59° WSW 21:38:51 10° NW
ATLAS 3B R/B 3.5 21:27:37 10° NNW 21:31:46 39° N 21:31:46 39° N
Cosmos 2263 Rocket 3.8 21:34:52 10° NW 21:39:19 29° W 21:39:19 29° W
Cosmos 2219 Rocket 4.4 21:54:49 18° N 21:54:49 18° N 21:56:22 10° N
Atlas Centaur 2 3.6 21:47:10 10° WNW 21:52:53 47° W 21:52:53 47° W
FALCON 9 R/B 4.4 22:06:28 10° W 22:17:04 41° NE 22:33:54 10° ENE
